sat.trackr.live / text

‹ back to catalog

KUIPER-00244

NORAD 68583 · 2026-072L

PAYLOAD ACTIVE UNKNOWN

§ Identity

Operator
Country
US
Launch date
2026-04-04
Launch site
AFETR
Launch vehicle
Mass (kg)
RCS (m²)

External: N2YO · Heavens-Above · Gunter

§ Orbital elements

Epoch: 2026-09-20T00:27:25.048224Z

Period
97.30 min
Inclination
51.8995°
Eccentricity
0.0001358
Mean motion
14.79929197 rev/d
Perigee alt
628.6 km
Apogee alt
630.5 km
Semi-major
7,007.7 km
B*
1.5346e-4
RAAN
121.3162°
Arg perigee
88.7203°
Mean anomaly
271.3915°
Rev number
2,537

§ Raw data

KUIPER-002441 68583U 26072L   26263.01903991  .00000949  00000+0  15346-3 0  99912 68583  51.8995 121.3162 0001358  88.7203 271.3915 14.79929197 25373

JSON: /api/v1/satellites/68583 · /tle

For live sub-satellite position, see the globe view (requires WebGL).

§ Visibility from observer

Set your observer location to see the next 7 days of passes ≥ 10°. The values pass through the URL so the page stays shareable.

No JS? Fill the form by hand. The geolocation button needs JavaScript.